Grand Forks, ND

12:37 PM CDT on July 22, 2017 (GMT -0500)
Grand Forks International

Weather History for KGFK - April, 2014

Change the Weather History Date:

Tuesday, April 22, 2014

  Actual Average Record
Temperature  
Mean Temperature 46 °F 46 °F  
Max Temperature 63 °F 58 °F 88 °F (1990)
Min Temperature 29 °F 33 °F 22 °F (2015)
Degree Days  
Heating Degree Days 19 20  
Month to date heating degree days 643 554  
Since 1 July heating degree days 9993 8939  
Cooling Degree Days 0 0  
Month to date cooling degree days 0 0  
Year to date cooling degree days 0 0  
Moisture  
Dew Point 32 °F    
Average Humidity 65    
Maximum Humidity 100    
Minimum Humidity 30    
Precipitation  
Precipitation 0.00 in 0.04 in 0.35 in (1968)
Month to date precipitation 0.21 0.65  
Year to date precipitation 2.21 2.68  
Snow  
Snow 0.00 in 0.10 in T in (1996)
Month to date snowfall 1.1 2.2  
Since 1 July snowfall 60.3 46.6  
Snow Depth 0.00 in    
Sea Level Pressure  
Sea Level Pressure 30.09 in    
Wind  
Wind Speed 7 mph (SE)    
Max Wind Speed 17 mph    
Max Gust Speed 24 mph    
Visibility 8 miles    
Events      
T = Trace of Precipitation, MM = Missing Value Source: NWS Daily Summary

Daily Weather History Graph

Daily Weather History Graph

Search for Another Location

Airport or City:

Trip Planner

Search our weather history database for the weather conditions in past years. The results will help you decide how hot, cold, wet, or windy it might be!

Date:

Astronomy

Apr. 22, 2014 Rise Set
Actual Time 6:26 AM CDT 8:29 PM CDT
Civil Twilight 5:52 AM CDT 9:02 PM CDT
Nautical Twilight 5:11 AM CDT 9:44 PM CDT
Astronomical Twilight 4:25 AM CDT 10:30 PM CDT
Moon 2:47 AM CDT 1:01 PM CDT
Length of Visible Light 15h 09m
Length of Day
14h 02m
Last Quarter, 46% of the Moon is Illuminated
Apr 22
Last Quarter
Apr 29
New
May 6
First Quarter
May 14
Full
May 21
Last Quarter

Hourly Weather History & Observations

Time (CDT) Temp. Windchill Dew Point Humidity Pressure Visibility Wind Dir Wind Speed Gust Speed Precip Events Conditions
12:53 AM 33.1 °F - 32.0 °F 96% 30.16 in 9.0 mi Calm Calm - N/A   Mostly Cloudy
1:53 AM 33.1 °F - 30.9 °F 92% 30.15 in 7.0 mi Calm Calm - N/A   Mostly Cloudy
2:53 AM 30.9 °F 27.5 °F 30.0 °F 96% 30.15 in 6.0 mi SSW 3.5 mph - N/A   Clear
3:48 AM 30.2 °F - 28.4 °F 93% 30.11 in 1.8 mi Calm Calm - N/A   Clear
3:53 AM 30.9 °F - 28.9 °F 92% 30.14 in 1.5 mi Calm Calm - N/A   Clear
3:57 AM 30.2 °F - 28.4 °F 93% 30.11 in 3.0 mi Calm Calm - N/A   Clear
4:53 AM 30.9 °F 27.5 °F 28.9 °F 92% 30.14 in 5.0 mi SW 3.5 mph - N/A   Mostly Cloudy
5:53 AM 32.0 °F - 30.0 °F 92% 30.15 in 8.0 mi Calm Calm - N/A   Scattered Clouds
6:53 AM 32.0 °F 27.5 °F 30.0 °F 92% 30.15 in 5.0 mi SSE 4.6 mph - N/A   Scattered Clouds
7:53 AM 36.0 °F 33.3 °F 34.0 °F 93% 30.16 in 5.0 mi ESE 3.5 mph - N/A   Mostly Cloudy
8:53 AM 43.0 °F 38.8 °F 37.0 °F 80% 30.16 in 6.0 mi ESE 6.9 mph - N/A   Haze
9:53 AM 46.9 °F - 36.0 °F 66% 30.15 in 10.0 mi ESE 8.1 mph - N/A   Scattered Clouds
10:53 AM 51.1 °F - 36.0 °F 56% 30.14 in 10.0 mi ESE 8.1 mph - N/A   Scattered Clouds
11:53 AM 54.0 °F - 36.0 °F 51% 30.13 in 10.0 mi SSE 6.9 mph - N/A   Partly Cloudy
12:53 PM 55.9 °F - 36.0 °F 47% 30.11 in 10.0 mi Variable 6.9 mph - N/A   Partly Cloudy
1:53 PM 57.0 °F - 35.1 °F 44% 30.08 in 10.0 mi Calm Calm - N/A   Scattered Clouds
2:53 PM 59.0 °F - 34.0 °F 39% 30.06 in 10.0 mi South 4.6 mph - N/A   Scattered Clouds
3:53 PM 61.0 °F - 35.1 °F 38% 30.04 in 10.0 mi SSE 8.1 mph - N/A   Scattered Clouds
4:53 PM 62.1 °F - 32.0 °F 32% 30.01 in 10.0 mi SE 6.9 mph - N/A   Scattered Clouds
5:53 PM 62.1 °F - 30.9 °F 31% 30.01 in 10.0 mi ESE 9.2 mph - N/A   Scattered Clouds
6:53 PM 61.0 °F - 30.0 °F 31% 30.00 in 10.0 mi SE 10.4 mph - N/A   Partly Cloudy
7:53 PM 57.9 °F - 30.9 °F 36% 29.99 in 10.0 mi East 13.8 mph - N/A   Partly Cloudy
8:53 PM 53.1 °F - 30.9 °F 43% 30.00 in 10.0 mi ESE 9.2 mph - N/A   Scattered Clouds
9:53 PM 52.0 °F - 32.0 °F 47% 29.99 in 10.0 mi East 11.5 mph - N/A   Partly Cloudy
10:53 PM 50.0 °F - 30.0 °F 46% 30.00 in 10.0 mi ESE 16.1 mph - N/A   Clear
11:53 PM 48.0 °F - 28.0 °F 46% 29.99 in 10.0 mi ESE 15.0 mph - N/A   Clear